Regional Weather Roundup
Issued by NWS

Home | Current Version | Previous Version | Text Only | Print | Product List | Glossary On
Versions: 1 2 3 4 5 6 7 8 9 10 11 12 13 14 15 16 17 18 19 20 21 22 23 24 25 26 27 28 29 30 31 32 33 34 35 36 37 38 39 40 41 42 43 44 45 46 47 48 49 50
000
ASCA42 TJSJ 182111
RWRPR
PUERTO RICO/U.S. VIRGIN ISLANDS HOURLY WEATHER ROUNDUP
NATIONAL WEATHER SERVICE SAN JUAN PR
500 PM AST THU DEC 18 2014

PRZ001-004-182200-
PUERTO RICO

CITY           SKY/WX    TMP DP  RH WIND       PRES   REMARKS
SAN JUAN LMM   MOSUNNY   79  72  78 E10       29.97S
AGUADILLA      MOSUNNY   79  66  65 E14       29.99S
CEIBA          CLOUDY    81  66  61 NE8       29.99R
$$

PRZ006-007-182200-
U.S. VIRGIN ISLANDS

CITY           SKY/WX    TMP DP  RH WIND       PRES   REMARKS
$$

HOURLY WEATHER ROUNDUP FOR THE NEWS MEDIA

CITY           SKY/WX    TMP DP  RH WIND       PRES   REMARKS
MIAMI          MOSUNNY   78  57  48 W6        30.07F
ORLANDO        MOSUNNY   69  47  45 W5        30.09F
NEW YORK       PTCLDY    42  24  49 W15G24    29.96R
NEWARK         MOCLDY    41  25  53 W22G28    29.97R
CHICAGO        CLOUDY    28  18  66 NW6       30.22R WCI  22
HARTFORD       MOCLDY    41  29  62 W12       29.81R
BOSTON         MOCLDY    42  29  59 W10G20    29.80R
DALLAS         CLOUDY    49  45  86 N6        30.10S FOG
PHILADELPHIA   MOCLDY    40  23  50 NW15G24   30.04R WCI  32


USA.gov is the U.S. government's official web portal to all federal, state and local government web resources and services.